This demonstration page uses our WeatherBlox Daily Observations layout. Learn more.

Left ArrowRight Arrow

38.83388, -104.82136

Hourly Observations for April 29, 2022

Temp ( °F °C ) Dew Point ( °F °C ) Humidity (%) Winds ( mph kmh ) Pressure ( in mb ) Visibility ( mi km ) Precip ( " mm )
12:58 am 00:58 Clear 57 14 15 -9.3 19 19 WNW 5 7 29.32 993 10 16 0.00 0.00
1:58 am 01:58 Clear 56 13.6 18 -7.7 22 22 WSW 6 9 29.30 992 10 16 0.00 0.00
2:58 am 02:58 Clear 55 12.9 14 -10.2 19 19 SW 3 6 29.28 992 10 16 0.00 0.00
3:58 am 03:58 Mostly Clear 54 12.2 11 -11.5 18 18 WNW 5 7 29.30 992 10 16 0.00 0.00
4:58 am 04:58 Mostly Clear 53 11.9 11 -11.7 18 18 W 7 11 29.32 993 10 16 0.00 0.00
5:58 am 05:58 Clear 53 11.6 12 -11.3 19 19 W 7 11 29.32 993 10 16 0.00 0.00
6:58 am 06:58 Sunny 53 11.8 13 -10.5 20 20 W 3 6 29.38 995 10 16 0.00 0.00
7:58 am 07:58 Sunny 57 13.7 17 -8.3 21 21 NNE 3 6 29.40 996 10 16 0.00 0.00
8:58 am 08:58 Sunny 61 16.3 13 -10.4 15 15 N 3 6 29.44 997 10 16 0.00 0.00
9:29 am 09:29 Mostly Sunny 61 16 7 -14 11 11 NNE 15 24 29.43 997 10 16 0.00 0.00
9:58 am 09:58 Mostly Sunny 63 17.4 8 -13.4 11 11 NE 9 15 29.45 997 10 16 0.00 0.00
10:02 am 10:02 Sunny 63 17 5 -15 10 10 NW 15 24 29.46 998 10 16 0.00 0.00
10:04 am 10:04 Sunny 61 16 1 -17 9 9 W 13 20 29.45 997 10 16 0.00 0.00
10:05 am 10:05 Sunny 61 16 1 -17 9 9 NW 14 22 29.45 997 10 16 0.00 0.00
10:06 am 10:06 Sunny 59 15 3 -16 10 10 N 15 24 29.47 998 10 16 0.00 0.00
10:36 am 10:36 Sunny 61 16 1 -17 9 9 NNW 24 39 29.45 997 10 16 0.00 0.00
10:39 am 10:39 Sunny with Nearby Thunderstorms 61 16 1 -17 9 9 NNE 12 19 29.46 998 10 16 0.00 0.00
10:58 am 10:58 Sunny 62 16.6 2 -16.5 9 9 W 7 11 29.44 997 10 16 0.00 0.00
11:58 am 11:58 Mostly Sunny 62 16.8 0 -17.7 8 8 NE 10 17 29.44 997 10 16 0.00 0.00
12:58 pm 12:58 Mostly Sunny 62 16.6 2 -16.5 9 9 ENE 5 7 29.44 997 10 16 0.00 0.00
1:58 pm 13:58 Sunny 61 16 6 -14.5 11 11 SSW 7 11 29.48 998 10 16 0.00 0.00
2:58 pm 14:58 undefined 58 14.4 11 -11.9 15 15 E 7 11 29.51 999 10 16 0.00 0.00
3:17 pm 15:17 Sunny 57 14 10 -12 15 15 NE 14 22 29.52 1000 10 16 0.00 0.00
3:58 pm 15:58 Sunny 56 13.5 4 -15.4 12 12 NNE 18 30 29.52 1000 10 16 0.00 0.00
4:58 pm 16:58 undefined 53 11.7 3 -15.9 13 13 N 17 28 29.50 999 10 16 0.00 0.00
5:12 pm 17:12 Sunny 54 12 1 -17 12 12 NNE 23 37 29.50 999 10 16 0.00 0.00
5:16 pm 17:16 Sunny 54 12 1 -17 12 12 N 21 33 29.51 999 10 16 0.00 0.00
6:58 pm 18:58 Sunny 49 9.6 1 -17.5 13 13 N 21 33 29.53 1000 10 16 0.00 0.00
7:58 pm 19:58 Clear 47 8.6 6 -14.4 18 18 NNW 7 11 29.54 1000 10 16 0.00 0.00
8:58 pm 20:58 Clear 46 7.7 8 -13.3 21 21 N 3 6 29.53 1000 10 16 0.00 0.00
9:58 pm 21:58 undefined 47 8.1 6 -14.2 19 19 NW 7 11 29.55 1001 10 16 0.00 0.00
10:30 pm 22:30 Clear 46 8 7 -14 20 20 NW 13 20 29.57 1002 10 16 0.00 0.00
10:58 pm 22:58 Clear 47 8.3 2 -16.9 15 15 N 16 26 29.59 1002 10 16 0.00 0.00
11:58 pm 23:58 undefined N/A N/A N/A undefined N/A N/A N/A 0.00 0.00

Powered by AerisWeather